軌道要素
Epoch 2011 July 18.0 TT = JDT 2455760.5
T 2011 July 4.31267 TT MPC
q 7.5031121 (2000.0) P Q
z +0.0002573 Peri. 48.89675 -0.20438920 -0.55088560
+/-0.0000029 Node 286.30423 -0.93599120 +0.35200861
e 0.9980691 Incl. 122.53418 +0.28661040 +0.75671329
From 96 observations 2011 June 10-2013 June 9, mean residual 0".6.
|